Regional Weather Roundup
Issued by NWS

Home | Current Version | Previous Version | Text Only | Print | Product List | Glossary On
Versions: 1 2 3 4 5 6 7 8 9 10 11 12 13 14 15 16 17 18 19 20 21 22 23 24 25 26 27 28 29 30 31 32 33 34 35 36 37 38 39 40 41 42 43 44 45 46 47 48 49 50
432
ASUS44 KJAN 271010
RWRMS

MISSISSIPPI HOURLY WEATHER ROUNDUP
NATIONAL WEATHER SERVICE JACKSON MS
500 AM CDT SUN JUL 27 2014

NOTE: "FAIR: INDICATES FEW OR NO CLOUDS BELOW 12,000 FEET WITH NO
SIGNIFICANT WEATHER AND/OR OBSTRUCTIONS TO VISIBILITY.

MSZ001>002-007>008-010>013-018>021-025>028-034>036-271100-
NORTHWEST MISSISSIPPI

CITY           SKY/WX    TMP DP  RH WIND       PRES   REMARKS
CLARKSDALE     FAIR      77  77 100 CALM      29.98S
CLEVELAND      FAIR      75  75 100 S6        29.98S
GREENWOOD      CLEAR     75  73  93 SW3       29.99F FOG
GREENVILLE     CLEAR     75  73  93 MISG      29.99R FOG
GRENADA        FAIR      72  72 100 CALM      29.99S
OLIVE BRANCH   CLEAR     73 N/A N/A S7        29.97S
OXFORD         FAIR      75  72  88 SW5       30.00S
TUNICA         PTSUNNY   77  73  88 S5        29.97F
$$

MSZ003>006-009-014>017-022>024-029>033-037>039-271100-
NORTHEAST MISSISSIPPI

CITY           SKY/WX    TMP DP  RH WIND       PRES   REMARKS
BELMONT        FAIR      75  73  93 SW3       29.98F
COLUMBUS AFB   CLEAR     72  72 100 CALM      30.00S
CORINTH        FAIR      77  73  88 SW5       29.96F
GOLDN TRIANGLE CLEAR     75  70  83 S3        30.01S
STARKVILLE     FAIR      72  70  94 CALM      30.00F FOG
TUPELO         PTCLDY    75  72  90 CALM      29.98F
$$

MSZ040-058-271100-
CENTRAL MISSISSIPPI

CITY           SKY/WX    TMP DP  RH WIND       PRES   REMARKS
JACKSON INTL   CLEAR     77  75  93 SW3       30.03R
JACKSON HAWKNS CLEAR     78  73  84 W5        30.03S
MERIDIAN KEY   CLEAR     73  72  96 CALM      30.03R
MERIDIAN NAS   CLEAR     75  72  90 W3        30.02S
RAYMOND        FAIR      77  72  83 CALM      30.03S
VICKSBURG      CLEAR     78  75  90 VRB3      30.02R
$$

MSZ059>079-271100-
SOUTH MISSISSIPPI

CITY           SKY/WX    TMP DP  RH WIND       PRES   REMARKS
BROOKHAVEN     FAIR      75  75 100 SW5       30.06F
COLUMBIA       FAIR      73  73 100 CALM      30.03F FOG
HATTIESBURG    CLEAR     78  75  90 W3        30.04F
MCCOMB         CLEAR     76  74  93 CALM      30.05S
NATCHEZ        CLEAR     77  73  88 S3        30.05S
PINE BELT      CLEAR     75  73  94 CALM      30.05S
$$

MSZ080>082-271100-
COASTAL MISSISSIPPI

CITY           SKY/WX    TMP DP  RH WIND       PRES   REMARKS
BILOXI         CLEAR     80  77  90 VRB3      30.04S
PASCAGOULA     CLEAR     78  76  93 CALM      30.04S
GULFPORT       CLEAR     81  76  84 CALM      30.03S
$$



USA.gov is the U.S. government's official web portal to all federal, state and local government web resources and services.